Location: Hamilton
(39.3990°N, 84.5610°W)
Time: 10:37:00
(UTC-04:00)

ISS - Visible Passes

Search period start: 19 September 2018 00:00
Search period end: 29 September 2018 00:00
Orbit: 402 x 408 km, 51.6° (Epoch: 19 September)

Date Brightness Start Highest point End Pass type
(mag) Time Alt. Az. Time Alt. Az. Time Alt. Az.
20 Sep -2.4 20:42:20 10° S 20:44:47 21° SE 20:44:47 21° SE visible
21 Sep -3.1 21:25:53 10° WSW 21:28:32 52° WSW 21:28:32 52° WSW visible
22 Sep -3.7 20:33:56 10° SW 20:37:10 56° SE 20:39:17 19° ENE visible
22 Sep -0.5 22:11:16 10° WNW 22:11:59 14° WNW 22:11:59 14° WNW visible
23 Sep -2.2 21:18:39 10° W 21:21:39 32° NNW 21:22:31 27° N visible
24 Sep -3.2 20:26:16 10° WSW 20:29:31 56° NW 20:32:46 10° NE visible
24 Sep -0.6 22:04:43 10° NW 22:05:33 13° NW 22:05:33 13° NW visible
25 Sep -1.4 21:11:49 10° WNW 21:14:14 19° NNW 21:15:45 14° NNE visible
26 Sep -1.9 20:19:05 10° W 20:21:57 27° NNW 20:24:50 10° NNE visible
26 Sep -0.5 21:58:24 10° NNW 21:58:29 10° NNW 21:58:29 10° NNW visible
27 Sep -1.0 21:05:17 10° NW 21:06:53 13° NNW 21:08:28 10° NNE visible
28 Sep -1.2 20:12:16 10° WNW 20:14:30 17° NNW 20:16:44 10° NNE visible
